Location: Banff
(51.1670°N, 115.5670°W)
Time: 06:12:52
(UTC-06:00)

Daily predictions for brighter satellites

Satellite Brightness Start Highest point End
(mag) Time Altitude Azimuth Time Altitude Azimuth Time Altitude Azimuth
Cosmos 1455 Rocket 3.0 21:04:42 10° S 21:09:02 83° E 21:13:26 10° NNE
Cosmos 1602 Rocket 3.6 21:04:37 10° N 21:09:07 75° ENE 21:13:32 10° SSE
Envisat 3.7 21:05:12 10° SE 21:09:50 37° ENE 21:14:28 10° N
Cosmos 2278 3.7 21:06:59 10° SSW 21:12:38 72° ESE 21:18:21 10° NNE
Cosmos 220 Rocket 4.3 21:08:37 10° NNW 21:12:50 67° WSW 21:17:01 10° SSE
Cosmos 1570 Rocket 4.1 21:10:37 10° SSW 21:15:55 88° WNW 21:21:14 10° NNE
Cosmos 990 Rocket 4.3 21:11:14 10° NNW 21:16:23 51° ENE 21:21:29 10° SE
Lacrosse 5 2.3 21:13:35 10° WNW 21:18:36 61° SW 21:23:34 10° SE
H-2A R/B 3.1 21:14:50 10° S 21:18:44 73° WSW 21:22:43 10° NNW
Cosmos 1980 Rocket 3.2 21:21:45 10° SSE 21:26:18 25° ESE 21:30:52 10° NE
Cosmos 2369 3.7 21:21:30 10° SSW 21:27:11 81° ESE 21:32:56 10° NNE
Cosmos 1975 2.8 21:23:49 10° S 21:27:53 68° E 21:31:59 10° NNE
Lacrosse 5 rocket 3.6 21:26:28 10° W 21:28:45 16° SW 21:30:59 10° SSW
Cosmos 2150 Rocket 4.1 21:25:08 10° NNW 21:30:19 80° WSW 21:35:29 10° SSE
H-2A R/B 3.9 21:28:25 10° E 21:30:49 14° NE 21:33:13 10° NNE
SPOT 5 3.6 21:28:37 10° SE 21:33:07 36° ENE 21:37:25 10° N
ERS-1 Rocket 3.0 21:29:49 10° SSE 21:34:48 71° ENE 21:39:50 10° NNW
Helios 1B rocket 4.3 21:31:08 10° N 21:34:56 36° WNW 21:38:42 10° SW
EO 1 Delta rocket 4.0 21:31:32 10° N 21:36:11 84° WNW 21:41:24 10° SSW
NOSS 2-1 (D) 4.5 21:32:25 10° WSW 21:36:25 54° NW 21:41:22 10° NE
Cosmos 1666 4.4 21:35:55 13° ESE 21:37:21 16° E 21:39:45 10° NE
NOSS 2-1 (C) 4.5 21:33:26 10° WSW 21:37:27 54° NW 21:42:24 10° NE
Cosmos 1459 Rocket 4.2 21:32:56 10° SSE 21:38:41 47° E 21:44:31 10° NNE
Cosmos 2058 Rocket 4.4 21:41:00 14° SE 21:43:37 22° E 21:47:05 10° NE
CZ-4 DEB 2.7 21:40:44 10° SSE 21:43:52 85° WSW 21:47:03 10° NNW
Cosmos 1656 3.6 21:40:15 10° SSW 21:45:48 68° ESE 21:51:19 10° NNE
Cosmos 1898 Rocket 4.1 21:40:55 10° NNW 21:46:09 59° WSW 21:51:19 10° S
SJ-11-01 4.3 21:41:30 10° SSE 21:46:11 88° WSW 21:50:54 10° NNW
Cosmos 2263 Rocket 3.3 21:41:52 10° NNW 21:46:46 30° NE 21:50:51 14° E
Cosmos 1763 Rocket 4.2 21:42:40 10° SSE 21:47:02 30° ESE 21:51:24 10° NE
Resurs 01 Rocket 4.4 21:44:34 10° SW 21:47:38 18° W 21:50:44 10° NW
Cosmos 1606 Rocket 4.3 21:43:50 10° SSE 21:47:48 34° E 21:51:49 10° NNE
Cosmos 1500 3.1 21:44:25 10° S 21:48:10 73° E 21:51:58 10° NNE
SPOT 1/Viking Rocket 4.4 21:45:55 15° ESE 21:49:38 34° ENE 21:54:17 10° N
Cosmos 2227 Rocket 4.2 21:45:47 10° NW 21:50:23 26° WSW 21:54:58 10° SSW
Cosmos 1340 2.7 21:48:19 10° N 21:52:07 64° ENE 21:55:15 14° SSE
Cosmos 1125 Rocket 4.0 21:47:18 10° NNW 21:52:19 44° ENE 21:55:59 17° ESE
YAOGAN 6 3.5 21:50:42 18° ESE 21:52:54 34° ENE 21:56:19 10° N
Terra 3.6 21:54:47 12° E 21:57:11 17° NE 22:00:12 10° NNE
Cosmos 2322 Rocket 3.5 21:58:39 18° ESE 21:59:58 19° E 22:03:48 10° ENE
USA 186 4.2 21:59:16 10° SW 22:01:32 20° W 22:03:42 10° NW
Cosmos 468 Rocket 3.9 21:59:25 10° SSW 22:04:32 77° ESE 22:09:42 10° NNE
Cosmos 1939 Rocket 3.1 22:01:07 10° S 22:05:16 74° WSW 22:09:28 10° NNW
Cosmos 2297 Rocket 4.1 22:00:49 10° NW 22:05:29 27° WSW 22:10:09 10° SSW
Meteor 1-21 4.3 22:00:03 10° NNW 22:05:52 84° ENE 22:11:24 11° SSE
ALOS 4.5 22:04:03 10° SSW 22:07:54 25° W 22:11:46 10° NW
Cosmos 841 Rocket 3.9 22:05:35 10° S 22:10:27 41° ESE 22:15:20 10° NE
Cosmos 1726 Rocket 3.8 22:07:22 15° SSE 22:10:45 47° E 22:15:01 10° NNE
USA 215 3.4 22:06:04 15° E 22:11:34 71° NNE 22:18:05 10° WNW
Cosmos 405 Rocket 3.8 22:09:39 10° N 22:12:55 27° ENE 22:13:54 23° E
Cosmos 2227 4.4 22:09:10 10° NNW 22:14:56 74° WSW 22:19:24 17° SSE
Cosmos 1814 Rocket 4.0 22:10:59 10° SSW 22:16:19 81° ESE 22:21:38 10° NNE
Cosmos 1802 Rocket 4.0 22:10:53 10° S 22:17:16 76° E 22:23:44 10° NNE
MetOp-A 4.1 22:15:10 18° SSE 22:19:15 79° ENE 22:24:39 10° NNW
Cosmos 1825 Rocket 4.0 22:15:30 10° NNW 22:19:53 63° W 22:23:59 11° S
ASTEX 1 3.5 22:16:30 10° NNE 22:21:29 60° E 22:25:07 18° S
Tiangong 1 3.6 22:21:58 10° SW 22:22:44 11° SSW 22:22:44 11° SSW
Cosmos 2016 Rocket 3.9 22:21:03 10° S 22:27:10 76° E 22:33:25 10° NNE
RESURS DK-1 4.2 22:24:33 10° NW 22:28:01 26° WSW 22:31:27 10° SSW
Cosmos 1743 2.9 22:24:20 10° SSW 22:28:15 73° WNW 22:32:11 10° N
Cosmos 1953 Rocket 3.9 22:26:30 10° NNW 22:30:55 66° W 22:34:19 17° S
ATLAS CENTAUR R/B 4.4 22:28:06 10° WNW 22:31:33 19° NNW 22:34:55 10° NNE
Cosmos 372 Rocket 4.2 22:27:16 10° NNW 22:32:20 57° ENE 22:34:40 31° SE
Cosmos 2278 Rocket 4.4 22:32:28 10° N 22:35:50 16° NNE 22:39:11 10° ENE
H-2A R/B 2.6 22:35:03 18° S 22:37:56 52° W 22:42:02 10° NNW
Cosmos 2173 Rocket 4.3 22:33:07 10° SSW 22:39:28 71° WNW 22:45:48 10° N
Cosmos 1238 4.0 22:37:36 10° N 22:40:54 82° E 22:41:18 64° SSE
USA 245 4.5 22:39:36 23° SSE 22:43:49 88° ENE 22:50:07 10° NNW
Cosmos 2228 3.0 22:44:11 40° SSE 22:45:25 57° E 22:49:39 10° NNE
SL-08 RB Rocket 3.7 22:44:03 37° SE 22:45:50 69° ENE 22:50:26 10° N
Cosmos 1697 Rocket 3.1 22:40:40 10° SW 22:46:17 64° NW 22:51:55 10° NNE
Envisat 4.2 22:44:07 10° SSW 22:48:50 38° W 22:53:35 10° NNW
Cosmos 1758 Rocket 4.3 22:45:16 10° NNW 22:49:29 49° W 22:52:16 20° SSW
Nimbus 7 Rocket 4.4 22:44:25 10° NNE 22:50:32 89° WNW 22:56:37 10° SSW
Cosmos 1842 4.1 22:51:13 10° NNW 22:55:00 48° W 22:56:49 26° SSW
deb Chang Zheng 4 3.9 22:50:40 10° N 22:55:08 69° WNW 22:59:15 12° SSW
PSLV R/B 3.9 22:54:54 41° SW 22:55:23 46° W 22:58:23 10° NNW
Cosmos 1864 Rocket 4.4 22:50:50 18° S 22:55:30 81° E 23:01:40 10° NNE
SL-16 R/B 2.4 22:54:57 35° SSE 22:56:41 46° ESE 23:02:05 10° NE
NOAA 11 4.2 22:55:11 30° S 22:58:00 82° WSW 23:03:31 10° NNW
Cosmos 1844 Rocket 4.1 22:53:52 10° NNW 22:58:37 27° NE 23:01:08 20° E
CZ-4B R/B 3.4 22:54:21 10° NNE 22:59:01 53° ESE 22:59:59 45° SE
GP-B 3.7 22:55:22 10° NNE 22:59:32 38° E 22:59:41 38° E
Tsikada Rocket 4.2 22:53:31 10° NNW 22:59:56 73° W 23:04:10 23° S
ARGOS 3.2 22:57:55 31° S 23:00:34 79° WSW 23:06:01 10° NNW
Lacrosse 5 4.1 22:57:58 10° W 23:00:42 15° WSW 23:03:17 10° SSW
SL-19 R/B 4.1 22:56:35 10° NNE 23:02:08 72° ESE 23:04:48 30° S
Cosmos 1707 3.3 22:59:56 10° N 23:03:39 43° ENE 23:03:39 43° ENE
Okean 3 Rocket 4.2 23:00:03 10° N 23:04:12 38° ENE 23:04:31 37° E
Cosmos 2346 Rocket 4.4 22:58:49 10° N 23:05:05 73° ENE 23:07:36 38° SSE
H-2A R/B 1.9 23:08:08 48° SE 23:09:26 71° ENE 23:14:21 10° N
Cosmos 1980 Rocket 2.5 23:04:12 10° SW 23:09:51 67° WNW 23:15:34 10° NNE
Cosmos 2360 Rocket 3.5 23:11:52 24° E 23:11:52 24° E 23:15:12 10° NE
SPOT 5 4.1 23:07:52 17° SSW 23:11:11 36° W 23:15:34 10° NNW
Cosmos 1666 3.5 23:10:53 26° SW 23:12:41 48° WNW 23:16:24 10° N
Cosmos 332 Rocket 3.8 23:14:34 55° SE 23:15:08 60° ESE 23:20:00 10° NNE
Cosmos 371 Rocket 3.7 23:18:51 43° E 23:18:51 43° E 23:22:54 10° NE
Landsat 7 3.7 23:17:54 54° S 23:19:01 86° WSW 23:23:49 10° NNW
Cosmos 2058 Rocket 4.0 23:18:15 19° SW 23:21:19 48° WNW 23:25:43 10° N
Meteor 2-17 Rocket 4.3 23:20:22 34° S 23:23:13 86° E 23:29:19 10° NNE
Cosmos 783 Rocket 4.4 23:25:26 55° SSE 23:26:25 67° ESE 23:31:40 10° NNE
Cosmos 1725 Rocket 4.4 23:22:33 15° SSW 23:27:47 62° WNW 23:34:00 10° N
Cosmos 1763 Rocket 4.4 23:23:45 10° SW 23:28:40 47° WNW 23:33:35 10° NNE
SPOT 1/Viking Rocket 4.4 23:26:33 27° SSW 23:28:55 44° W 23:33:55 10° NNW
Cosmos 2098 Rocket 4.5 23:23:04 10° SSW 23:29:30 53° WNW 23:34:43 10° N
Cosmos 2263 Rocket 2.3 23:25:37 10° NW 23:31:08 65° WSW 23:32:32 48° S
Terra 1.7 23:33:41 67° S 23:34:18 86° WSW 23:39:07 10° NNW
CARTOSAT-1 3.5 23:35:59 77° SW 23:36:11 80° WSW 23:40:32 10° NNW
Meteor 2-5 Rocket 3.9 23:30:24 10° NNW 23:36:21 75° W 23:38:07 46° S
CZ-4 R/B 3.7 23:32:27 10° NNE 23:37:13 89° W 23:38:01 63° SSW
Cosmos 1076 Rocket 4.3 23:33:28 10° N 23:36:59 38° NE 23:36:59 38° NE
GEOS 3 Rocket 4.5 23:33:30 10° NE 23:36:40 33° ENE 23:36:40 33° ENE
Cosmos 1441 Rocket 3.6 23:35:42 10° N 23:39:05 60° NNE 23:39:05 60° NNE
Cosmos 2322 Rocket 2.1 23:40:22 30° SSW 23:43:18 84° WNW 23:48:59 10° NNE
DELTA 2 DEB (DPAF) 4.4 23:43:36 55° SW 23:44:02 57° WSW 23:48:29 10° NNW
BREEZE-M DEB (TANK) 3.8 23:37:19 10° WSW 23:43:19 37° SW 23:43:19 37° SW
Cosmos 1072 Rocket 4.4 23:45:24 55° SE 23:46:34 67° E 23:52:43 10° NNE
Genesis I 4.0 23:43:59 10° NW 23:47:08 45° W 23:47:08 45° W
Cosmos 2322 4.2 23:49:22 42° E 23:49:22 42° E 23:53:58 10° NE
Cosmos 405 Rocket 4.2 23:45:43 10° NNW 23:48:59 28° W 23:49:09 28° W
Meteor 1-24 Rocket 3.8 23:45:03 10° NNW 23:51:09 89° ENE 23:52:19 61° SSE
Cosmos 2233 Rocket 4.3 23:48:18 30° SSW 23:51:24 65° WNW 23:57:40 10° N
Lacrosse 4 Rocket 3.8 23:55:58 14° ENE 23:55:58 14° ENE 23:56:45 10° NE
